Location: Oso Ridge
(35.0450°N, 108.0864°W)
Time: 05:05:44
(UTC-06:00)

Amateur Radio Satellites - All Passes

Search period start: 19 October 2017 04:35
Search period end: 20 October 2017 04:35
Location: Oso Ridge, 35.0450°N, 108.0864°W

Satellite Date Start Highest point End Downlink Frequencies (MHz)
Time Altitude Azimuth
NO-84 19 Oct 05:21:08 05:24:09 18° 326° (NW) 05:27:08 435.350 FM
DOVE 4 19 Oct 05:23:46 05:27:33 21° 95° (E) 05:31:24 437.250
KKS-1 19 Oct 05:25:46 05:30:08 64° 75° (ENE) 05:34:33 437.445
CUBESAT XI-V 19 Oct 05:32:29 05:36:33 30° 263° (W) 05:40:36 437.345
ITAMSAT 1 19 Oct 05:38:56 05:43:42 36° 290° (WNW) 05:48:27 435.822/435.867
STARS 19 Oct 06:02:44 06:07:04 65° 74° (ENE) 06:11:25 437.465
AO-7 19 Oct 06:02:55 06:10:19 38° 297° (WNW) 06:17:45 .
XW-2D 19 Oct 06:12:03 06:12:43 10° 92° (E) 06:13:22 145.860 - 145.880
XW-2B 19 Oct 06:24:02 06:26:13 15° 94° (E) 06:28:24 145.730 - 145.750
SO-50 19 Oct 06:38:05 06:41:29 21° 111° (ESE) 06:44:54 436.795
XW-2C 19 Oct 06:46:12 06:49:31 30° 97° (E) 06:52:49 145.795 - 145.815
O/OREOS (USA 219) 19 Oct 06:51:59 06:55:55 27° 63° (ENE) 06:59:48 437.305
JUGNU 19 Oct 06:53:39 06:56:15 13° 168° (SSE) 06:58:51 437.505
RS-15 19 Oct 06:55:30 07:01:01 14° 7° (N) 07:06:27 29.354- 29.394
DOVE 4 19 Oct 07:00:35 07:05:13 39° 287° (WNW) 07:10:02 437.250
STRAND 1 19 Oct 07:25:17 07:30:05 42° 72° (ENE) 07:34:56 437.568
HO-68 19 Oct 07:25:33 07:31:32 28° 96° (E) 07:37:29 435.675
XW-2F 19 Oct 07:32:07 07:35:48 63° 284° (WNW) 07:39:28 145.980 - 146.000
KAITUO 1B 19 Oct 07:32:44 07:36:25 84° 282° (WNW) 07:40:06 145.475/437.950
LilacSat-2 19 Oct 07:34:21 07:37:59 50° 285° (WNW) 07:41:37 437.200
PCSat 19 Oct 07:35:35 07:37:44 12° 103° (ESE) 07:39:52 145.827
CUTE-I 19 Oct 07:37:14 07:42:39 89° 103° (ESE) 07:48:01 437.470
XW-2D 19 Oct 07:43:32 07:47:02 39° 286° (WNW) 07:50:30 145.860 - 145.880
NUDT-PHONESAT 19 Oct 07:49:25 07:52:57 49° 285° (WNW) 07:56:29 437.300
CUBEBUG 2 19 Oct 07:49:43 07:53:13 21° 94° (E) 07:56:37 437.445
XW-2B 19 Oct 07:57:12 08:00:24 27° 288° (WNW) 08:03:35 145.730 - 145.750
XW-2A 19 Oct 08:11:43 08:14:05 18° 95° (E) 08:16:25 145.665 - 145.685
SO-50 19 Oct 08:17:41 08:21:42 33° 306° (NW) 08:25:47 436.795
XW-2C 19 Oct 08:21:23 08:23:24 14° 291° (WNW) 08:25:25 145.795 - 145.815
UWE-3 19 Oct 08:30:13 08:34:16 33° 97° (E) 08:38:12 435.000/436.395/437.385
O/OREOS (USA 219) 19 Oct 08:31:29 08:35:10 24° 258° (WSW) 08:38:49 437.305
CUTE 1.7 + AOD 2 19 Oct 08:38:47 08:42:53 53° 285° (WNW) 08:46:58 437.475
JUGNU 19 Oct 08:40:44 08:44:30 18° 178° (S) 08:48:15 437.505
SEEDS 19 Oct 08:48:28 08:52:37 71° 283° (WNW) 08:56:46 437.485
FO-29 19 Oct 08:49:13 08:54:00 39° 70° (ENE) 08:59:01 435.910
Oscar 11 19 Oct 08:51:01 08:53:45 16° 94° (E) 08:56:28 .
STRAND 1 19 Oct 09:05:50 09:09:24 19° 266° (W) 09:12:59 437.568
RS-15 19 Oct 09:08:50 09:19:12 32° 42° (NE) 09:29:04 29.354- 29.394
HO-68 19 Oct 09:12:33 09:19:24 49° 291° (WNW) 09:26:14 435.675
YUBILEINY 19 Oct 09:14:06 09:21:35 34° 86° (E) 09:29:04 435.215
PCSat 19 Oct 09:15:02 09:20:25 71° 297° (WNW) 09:25:51 145.827
SRMSAT 19 Oct 09:15:19 09:16:50 11° 165° (SSE) 09:18:22 437.500
AAUSAT CUBESAT 2 19 Oct 09:16:25 09:20:32 79° 283° (WNW) 09:24:39 437.432
nSIGHT-1 19 Oct 09:18:22 09:19:02 10° 126° (SE) 09:19:42 .
CUTE-I 19 Oct 09:21:10 09:21:51 10° 299° (WNW) 09:22:33 437.470
AO-73 19 Oct 09:25:27 09:29:47 67° 101° (ESE) 09:33:58 145.935
CUBEBUG 2 19 Oct 09:25:45 09:29:48 31° 289° (WNW) 09:33:44 437.445
XW-2A 19 Oct 09:44:21 09:46:39 17° 289° (WNW) 09:48:55 145.665 - 145.685
ISS 19 Oct 09:46:03 09:48:28 19° 129° (SE) 09:50:53 437.550
ZACube-1 19 Oct 09:46:44 09:51:03 58° 285° (WNW) 09:55:14 437.345
PRISM 19 Oct 09:55:31 09:58:08 17° 68° (ENE) 10:00:45 437.425
UNISAT 6 19 Oct 10:00:46 10:05:13 52° 74° (ENE) 10:09:47 437.425
UWE-3 19 Oct 10:07:17 10:10:25 19° 292° (WNW) 10:13:30 435.000/436.395/437.385
TIGRISAT 19 Oct 10:15:47 10:20:22 70° 75° (ENE) 10:25:02 435.000
NO-84 19 Oct 10:20:04 10:21:44 12° 29° (NNE) 10:23:20 435.350 FM
EO-88 19 Oct 10:25:26 10:28:05 19° 95° (E) 10:30:43 145.990 - 145.960
Oscar 11 19 Oct 10:26:04 10:29:57 34° 288° (WNW) 10:33:49 .
JUGNU 19 Oct 10:29:32 10:32:45 15° 189° (S) 10:36:00 437.505
Max Valier Satellite 19 Oct 10:31:47 10:35:10 34° 98° (E) 10:38:29 145.860
FO-29 19 Oct 10:35:36 10:39:18 20° 267° (W) 10:43:09 435.910
nSIGHT-1 19 Oct 10:51:48 10:54:55 54° 319° (NW) 10:58:04 .
DELFI C3 19 Oct 10:56:02 10:59:59 73° 283° (WNW) 11:03:56 145.870
SRMSAT 19 Oct 11:01:30 11:05:14 17° 175° (S) 11:08:59 437.500
YUBILEINY 19 Oct 11:09:50 11:18:02 46° 283° (WNW) 11:26:18 435.215
EO-79 19 Oct 11:15:23 11:17:11 12° 66° (ENE) 11:18:59 145.935-145.965
POLYITAN 1 19 Oct 11:19:17 11:21:31 14° 67° (ENE) 11:23:46 437.675
LO-87 19 Oct 11:20:47 11:21:24 10° 92° (E) 11:22:02 145.935 - 145.965
RS-15 19 Oct 11:21:02 11:32:48 76° 246° (WSW) 11:43:54 29.354- 29.394
ISS 19 Oct 11:21:49 11:24:46 31° 324° (NW) 11:27:44 437.550
PRISM 19 Oct 11:29:33 11:33:07 30° 262° (W) 11:36:44 437.425
AIST 2D 19 Oct 11:33:21 11:36:48 56° 76° (ENE) 11:40:15 435.315
QB50P2 19 Oct 11:38:00 11:41:32 26° 70° (ENE) 11:45:04 145.880/145.840
BEESAT 3 19 Oct 11:39:30 11:41:20 13° 108° (ESE) 11:43:10 437.485
UNISAT 6 19 Oct 11:40:07 11:42:11 13° 268° (W) 11:44:17 437.425
NANOSAT C BR1 19 Oct 11:42:40 11:46:01 23° 70° (ENE) 11:49:23 145.865
DUCHIFAT 1 19 Oct 11:53:50 11:57:24 27° 71° (ENE) 12:00:58 145.980
NO-84 19 Oct 11:56:00 11:59:40 86° 227° (SW) 12:02:59 435.350 FM
EO-88 19 Oct 11:58:54 12:01:36 20° 289° (WNW) 12:04:19 145.990 - 145.960
Max Valier Satellite 19 Oct 12:07:07 12:08:37 12° 292° (WNW) 12:10:06 145.860
ESTCUBE 1 19 Oct 12:16:11 12:20:24 40° 99° (E) 12:24:37 437.505/2401.250
EO-79 19 Oct 12:48:21 12:52:28 48° 260° (W) 12:56:37 145.935-145.965
SRMSAT 19 Oct 12:49:57 12:53:40 17° 185° (S) 12:57:25 437.500
LO-87 19 Oct 12:51:35 12:54:56 36° 286° (WNW) 12:58:17 145.935 - 145.965
POLYITAN 1 19 Oct 12:52:50 12:56:53 42° 261° (W) 13:00:59 437.675
BEESAT 2 19 Oct 12:55:39 12:59:03 27° 112° (ESE) 13:02:29 435.950
Oscar 19 19 Oct 13:05:34 13:09:42 25° 68° (ENE) 13:13:50 437.125/150
M-CUBED/EXP-1 PRIME 19 Oct 13:10:14 13:12:55 21° 67° (ENE) 13:15:31 437.505
SPROUT 19 Oct 13:10:50 13:14:52 38° 99° (E) 13:18:50 437.525
QB50P2 19 Oct 13:13:54 13:17:13 22° 265° (W) 13:20:34 145.880/145.840
BEESAT 3 19 Oct 13:14:39 13:18:27 42° 303° (WNW) 13:22:18 437.485
NANOSAT C BR1 19 Oct 13:18:06 13:21:34 24° 264° (W) 13:25:04 145.865
Gurwin Techsat 1B 19 Oct 13:27:51 13:32:20 28° 68° (ENE) 13:36:48 435.225
DUCHIFAT 1 19 Oct 13:29:47 13:32:59 21° 265° (W) 13:36:12 145.980
RS-15 19 Oct 13:38:18 13:42:57 13° 264° (W) 13:47:34 29.354- 29.394
AO-85 19 Oct 13:39:43 13:43:31 58° 117° (ESE) 13:47:23 145.980
BUGSAT 1 19 Oct 13:40:39 13:44:45 65° 258° (WSW) 13:48:58 437.445
VELOX 1 19 Oct 13:46:55 13:51:22 69° 102° (ESE) 13:55:47 145.980
50 SAT 19 Oct 13:50:52 13:52:58 16° 95° (E) 13:55:04 437.505
ESTCUBE 1 19 Oct 13:54:07 13:56:50 16° 293° (WNW) 13:59:33 437.505/2401.250
BEESAT 2 19 Oct 14:33:37 14:36:44 22° 308° (NW) 14:39:54 435.950
SRMSAT 19 Oct 14:40:45 14:42:05 11° 195° (SSW) 14:43:25 437.500
Oscar 19 19 Oct 14:44:09 14:48:48 34° 262° (W) 14:53:28 437.125/150
M-CUBED/EXP-1 PRIME 19 Oct 14:45:07 14:47:17 16° 259° (W) 14:49:25 437.505
SPROUT 19 Oct 14:47:50 14:50:22 16° 293° (WNW) 14:52:55 437.525
DX 1 19 Oct 14:56:34 15:00:57 83° 284° (WNW) 15:05:20 434.975-435.025
AO-7 19 Oct 15:05:21 15:13:06 46° 65° (ENE) 15:20:51 .
Gurwin Techsat 1B 19 Oct 15:07:30 15:12:08 31° 263° (W) 15:16:47 435.225
SO-50 19 Oct 15:13:44 15:14:39 10° 44° (NE) 15:15:36 436.795
ITAMSAT 1 19 Oct 15:14:57 15:19:12 26° 68° (ENE) 15:23:28 435.822/435.867
50 SAT 19 Oct 15:22:44 15:25:11 20° 289° (WNW) 15:27:38 437.505
UKube-1 19 Oct 15:22:50 15:27:07 66° 285° (WNW) 15:31:24 .
AO-85 19 Oct 15:23:12 15:24:18 11° 314° (NW) 15:25:23 145.980
MOZHAYETS 4 19 Oct 15:46:16 15:50:10 27° 96° (E) 15:54:01
ITUPSAT 1 19 Oct 16:05:50 16:10:18 38° 99° (E) 16:14:44 437.325
ISS 19 Oct 16:17:32 16:18:02 10° 24° (NNE) 16:18:33 437.550
BEESAT 19 Oct 16:21:49 16:26:33 60° 101° (E) 16:31:15 436.000
DOVE 4 19 Oct 16:28:30 16:29:49 11° 65° (ENE) 16:31:10 437.250
SO-50 19 Oct 16:51:07 16:55:45 87° 56° (NE) 17:00:27 436.795
ITAMSAT 1 19 Oct 16:53:53 16:58:28 32° 262° (W) 17:03:07 435.822/435.867
AO-7 19 Oct 16:58:29 17:05:53 35° 261° (W) 17:13:18 .
CUTE-I 19 Oct 17:19:52 17:21:45 12° 62° (ENE) 17:23:38 437.470
KKS-1 19 Oct 17:21:07 17:23:50 16° 94° (E) 17:26:33 437.445
nSIGHT-1 19 Oct 17:21:28 17:24:26 34° 37° (NE) 17:27:23 .
MOZHAYETS 4 19 Oct 17:23:30 17:27:09 24° 291° (WNW) 17:30:47
XW-2C 19 Oct 17:27:18 17:27:27 10° 67° (ENE) 17:27:35 145.795 - 145.815
CUBESAT XI-V 19 Oct 17:31:22 17:35:58 85° 100° (E) 17:40:35 437.345
ITUPSAT 1 19 Oct 17:44:27 17:47:48 19° 293° (WNW) 17:51:08 437.325
ISS 19 Oct 17:51:49 17:55:04 63° 41° (NE) 17:58:19 437.550
HO-68 19 Oct 17:53:16 17:57:02 15° 57° (ENE) 18:00:50 435.675
STARS 19 Oct 17:56:35 17:59:09 15° 94° (E) 18:01:42 437.465
BEESAT 19 Oct 18:01:41 18:03:45 13° 296° (WNW) 18:05:49 436.000
DOVE 4 19 Oct 18:02:59 18:07:00 49° 261° (W) 18:11:09 437.250
PCSat 19 Oct 18:06:14 18:11:26 45° 59° (ENE) 18:16:36 145.827
XW-2F 19 Oct 18:09:27 18:12:53 33° 73° (ENE) 18:16:18 145.980 - 146.000
KAITUO 1B 19 Oct 18:09:33 18:12:40 25° 72° (ENE) 18:15:46 145.475/437.950
LilacSat-2 19 Oct 18:12:30 18:16:10 43° 75° (ENE) 18:19:49 437.200
XW-2D 19 Oct 18:20:48 18:24:31 54° 76° (ENE) 18:28:14 145.860 - 145.880
NUDT-PHONESAT 19 Oct 18:24:48 18:28:17 38° 74° (ENE) 18:31:45 437.300
XW-2B 19 Oct 18:34:07 18:37:56 80° 77° (ENE) 18:41:44 145.730 - 145.750
CUBEBUG 2 19 Oct 18:45:34 18:47:44 13° 65° (ENE) 18:49:55 437.445
CUTE-I 19 Oct 18:55:45 19:01:04 78° 258° (WSW) 19:06:25 437.470
KKS-1 19 Oct 18:56:19 19:00:30 39° 287° (WNW) 19:04:39 437.445
XW-2C 19 Oct 18:57:29 19:01:09 46° 261° (W) 19:04:50 145.795 - 145.815
nSIGHT-1 19 Oct 18:58:18 19:00:30 17° 231° (SW) 19:02:42 .
UWE-3 19 Oct 19:24:07 19:27:26 20° 68° (ENE) 19:30:47 435.000/436.395/437.385
CUTE 1.7 + AOD 2 19 Oct 19:27:34 19:31:45 66° 76° (ENE) 19:35:56 437.475
YUBILEINY 19 Oct 19:30:17 19:33:50 13° 64° (ENE) 19:37:23 435.215
STARS 19 Oct 19:31:27 19:35:37 40° 287° (WNW) 19:39:44 437.465
SEEDS 19 Oct 19:36:28 19:40:29 48° 75° (ENE) 19:44:30 437.485
HO-68 19 Oct 19:36:35 19:43:45 89° 70° (ENE) 19:50:59 435.675
STRAND 1 19 Oct 19:39:54 19:43:30 19° 94° (E) 19:47:05 437.568
KAITUO 1B 19 Oct 19:44:12 19:46:36 16° 265° (W) 19:49:00 145.475/437.950
XW-2F 19 Oct 19:45:21 19:47:04 13° 267° (W) 19:48:46 145.980 - 146.000
PCSat 19 Oct 19:50:32 19:54:26 20° 255° (WSW) 19:58:19 145.827
NUDT-PHONESAT 19 Oct 20:01:30 20:02:16 10° 268° (W) 20:03:00 437.300
AAUSAT CUBESAT 2 19 Oct 20:02:58 20:06:49 40° 74° (ENE) 20:10:40 437.432
XW-2A 19 Oct 20:10:45 20:14:09 79° 78° (ENE) 20:17:35 145.665 - 145.685
AO-73 19 Oct 20:17:09 20:21:16 34° 72° (ENE) 20:25:25 145.935
CUBEBUG 2 19 Oct 20:19:14 20:23:46 56° 260° (W) 20:28:25 437.445
ZACube-1 19 Oct 20:38:14 20:42:46 70° 77° (ENE) 20:47:21 437.345
UWE-3 19 Oct 20:59:21 21:03:34 35° 263° (W) 21:07:52 435.000/436.395/437.385
O/OREOS (USA 219) 19 Oct 21:00:20 21:04:47 57° 106° (ESE) 21:09:17 437.305
Max Valier Satellite 19 Oct 21:09:59 21:10:32 10° 67° (ENE) 21:11:05 145.860
SEEDS 19 Oct 21:15:20 21:16:22 11° 268° (W) 21:17:25 437.485
Oscar 11 19 Oct 21:16:41 21:21:01 71° 259° (W) 21:25:21 .
STRAND 1 19 Oct 21:17:57 21:22:48 43° 288° (WNW) 21:27:38 437.568
YUBILEINY 19 Oct 21:23:14 21:32:05 78° 83° (E) 21:40:55 435.215
HO-68 19 Oct 21:29:14 21:32:13 13° 269° (W) 21:35:14 435.675
BEESAT 3 19 Oct 21:34:12 21:37:50 34° 56° (NE) 21:41:24 437.485
DELFI C3 19 Oct 21:37:54 21:41:28 36° 73° (ENE) 21:45:04 145.870
AAUSAT CUBESAT 2 19 Oct 21:40:39 21:42:25 12° 268° (W) 21:44:10 437.432
FO-29 19 Oct 21:43:58 21:50:54 57° 101° (E) 21:58:26 435.910
AO-73 19 Oct 21:54:19 21:57:31 19° 266° (W) 22:00:45 145.935
UNISAT 6 19 Oct 21:57:22 21:59:47 14° 92° (E) 22:02:10 437.425
TIGRISAT 19 Oct 22:11:39 22:14:54 19° 94° (E) 22:18:05 435.000
AO-85 19 Oct 22:13:19 22:17:02 24° 53° (NE) 22:20:59 145.980
EO-88 19 Oct 22:31:56 22:35:35 84° 259° (W) 22:39:15 145.990 - 145.960
Max Valier Satellite 19 Oct 22:40:20 22:43:54 43° 261° (W) 22:47:29 145.860
O/OREOS (USA 219) 19 Oct 22:42:32 22:44:33 13° 303° (WNW) 22:46:35 437.305
BEESAT 2 19 Oct 22:52:56 22:56:59 80° 62° (ENE) 23:00:57 435.950
ESTCUBE 1 19 Oct 23:12:44 23:16:25 25° 70° (ENE) 23:20:06 437.505/2401.250
BEESAT 3 19 Oct 23:12:45 23:15:02 15° 251° (WSW) 23:17:18 437.485
PRISM 19 Oct 23:13:16 23:17:12 41° 99° (E) 23:21:06 437.425
DELFI C3 19 Oct 23:14:36 23:16:19 13° 267° (W) 23:18:03 145.870
YUBILEINY 19 Oct 23:22:17 23:27:48 19° 280° (W) 23:33:20 435.215
LO-87 19 Oct 23:23:42 23:27:07 45° 75° (ENE) 23:30:35 145.935 - 145.965
FO-29 19 Oct 23:29:58 23:35:30 26° 294° (WNW) 23:41:28 435.910
RS-15 19 Oct 23:29:59 23:38:47 24° 101° (E) 23:47:37 29.354- 29.394
UNISAT 6 19 Oct 23:32:19 23:36:42 45° 287° (WNW) 23:40:58 437.425
TIGRISAT 19 Oct 23:47:30 23:51:37 33° 289° (WNW) 23:55:39 435.000
AO-85 19 Oct 23:53:11 23:57:30 36° 246° (WSW) 00:02:04 145.980
SPROUT 20 Oct 00:01:26 00:04:31 20° 69° (ENE) 00:07:38 437.525
AIST 2D 20 Oct 00:34:11 00:37:39 70° 282° (WNW) 00:41:04 435.315
EO-79 20 Oct 00:36:13 00:40:04 32° 98° (E) 00:43:52 145.935-145.965
POLYITAN 1 20 Oct 00:40:42 00:44:40 37° 98° (E) 00:48:35 437.675
VELOX 1 20 Oct 00:40:50 00:44:53 39° 72° (ENE) 00:48:57 145.980
ESTCUBE 1 20 Oct 00:49:26 00:53:06 25° 264° (W) 00:56:47 437.505/2401.250
PRISM 20 Oct 00:50:03 00:52:04 13° 293° (WNW) 00:54:05 437.425
QB50P2 20 Oct 01:00:42 01:04:59 76° 102° (ESE) 01:09:12 145.880/145.840
NANOSAT C BR1 20 Oct 01:04:32 01:08:46 65° 102° (ESE) 01:12:56 145.865
DUCHIFAT 1 20 Oct 01:15:34 01:19:49 77° 103° (ESE) 01:24:00 145.980
BUGSAT 1 20 Oct 01:26:08 01:29:27 22° 96° (E) 01:32:43 437.445
SPROUT 20 Oct 01:36:28 01:40:11 29° 263° (W) 01:43:56 437.525
RS-15 20 Oct 01:37:32 01:49:49 83° 299° (WNW) 02:02:14 29.354- 29.394
50 SAT 20 Oct 01:47:02 01:50:14 64° 75° (ENE) 01:53:28 437.505
Gurwin Techsat 1B 20 Oct 01:48:29 01:51:12 14° 92° (E) 01:53:53 435.225
DX 1 20 Oct 01:48:33 01:52:45 54° 74° (ENE) 01:56:59 434.975-435.025
EO-79 20 Oct 02:12:41 02:15:32 18° 292° (WNW) 02:18:21 145.935-145.965
UKube-1 20 Oct 02:13:34 02:17:48 66° 75° (ENE) 02:22:05 .
POLYITAN 1 20 Oct 02:17:32 02:20:05 16° 293° (WNW) 02:22:38 437.675
VELOX 1 20 Oct 02:18:55 02:21:26 15° 266° (W) 02:23:59 145.980
M-CUBED/EXP-1 PRIME 20 Oct 02:24:07 02:27:19 29° 103° (ESE) 02:30:43 437.505
MOZHAYETS 4 20 Oct 02:45:26 02:48:40 19° 68° (ENE) 02:51:55
Oscar 19 20 Oct 02:58:20 03:03:27 75° 285° (WNW) 03:08:32 437.125/150
BUGSAT 1 20 Oct 03:01:16 03:04:41 24° 290° (WNW) 03:08:05 437.445
NO-84 20 Oct 03:07:21 03:11:29 49° 128° (SE) 03:15:39 435.350 FM
ITUPSAT 1 20 Oct 03:09:22 03:13:36 32° 70° (ENE) 03:17:50 437.325
AO-7 20 Oct 03:12:36 03:17:15 16° 93° (E) 03:21:54 .
BEESAT 20 Oct 03:24:46 03:29:21 47° 73° (ENE) 03:33:57 436.000
Gurwin Techsat 1B 20 Oct 03:26:14 03:31:28 60° 286° (WNW) 03:36:41 435.225
DX 1 20 Oct 03:28:29 03:29:12 10° 268° (W) 03:29:56 434.975-435.025
ITAMSAT 1 20 Oct 03:33:04 03:34:35 11° 91° (E) 03:36:05 435.822/435.867
RS-15 20 Oct 03:54:36 04:04:24 26° 324° (NW) 04:14:12 29.354- 29.394
M-CUBED/EXP-1 PRIME 20 Oct 03:59:19 04:01:32 16° 294° (WNW) 04:03:51 437.505
KKS-1 20 Oct 04:18:23 04:18:55 10° 64° (ENE) 04:19:27 437.445
MOZHAYETS 4 20 Oct 04:21:16 04:25:32 36° 262° (W) 04:29:48
